Location: Washington
(38.8950°N, 77.0367°W)
Time: 02:54:20
(UTC-05:00)

N. Korean satellite - Visible Passes

Search period start: 30 January 2015 00:00
Search period end: 09 February 2015 00:00
Orbit: 479 x 546 km, 97.3° (Epoch: 29 January)

Date Brightness Start Highest point End Pass type
(mag) Time Alt. Az. Time Alt. Az. Time Alt. Az.
03 Feb 9.6 19:58:23 10° NNW 19:58:23 10° NNW 19:58:27 10° NNW visible
04 Feb 9.1 19:42:01 15° NNW 19:42:01 15° NNW 19:42:44 10° NNW visible
05 Feb 8.6 19:25:39 19° N 19:25:39 19° N 19:26:52 10° N visible
06 Feb 8.2 19:09:16 22° NNE 19:09:16 22° NNE 19:10:51 10° N visible
07 Feb 8.1 18:52:51 20° NE 18:52:51 20° NE 18:54:39 10° NNE visible
07 Feb 9.8 20:27:45 12° NW 20:27:45 12° NW 20:28:11 10° NW visible
08 Feb 8.3 18:36:25 16° NE 18:36:25 16° NE 18:38:11 10° NNE visible
08 Feb 9.1 20:11:19 19° NW 20:11:19 19° NW 20:12:49 10° NW visible
